Location: Pella
(41.4080°N, 92.9160°W)
Time: 19:38:34
(UTC-06:00)

Iridium 91 - Visible Passes

Search period start: 06 March 2015 00:00
Search period end: 16 March 2015 01:00
Orbit: 776 x 779 km, 86.4° (Epoch: 06 March)

Date Brightness Start Highest point End Pass type
(mag) Time Alt. Az. Time Alt. Az. Time Alt. Az.
06 Mar 6.5 19:47:23 10° NNW 19:52:25 49° W 19:57:25 10° SSW visible
07 Mar 5.5 19:13:43 10° N 19:18:57 89° E 19:24:11 10° S visible
07 Mar 8.8 20:58:28 10° WNW 20:58:59 10° WNW 20:59:08 10° WNW visible
08 Mar 5.7 19:40:19 10° N 19:45:22 49° E 19:50:25 10° SSE visible
08 Mar 8.2 21:22:04 10° NW 21:25:45 19° W 21:29:16 10° WSW visible
09 Mar 9.0 07:00:29 10° E 07:02:02 12° ENE 07:03:55 10° ENE visible
09 Mar 7.2 20:47:44 10° NNW 20:52:27 34° W 20:57:04 10° SSW visible
10 Mar 6.1 20:13:52 10° N 20:19:02 63° W 20:24:10 10° S visible
11 Mar 5.5 19:40:18 10° N 19:45:31 71° E 19:50:43 10° S visible
11 Mar 8.7 21:23:09 10° NW 21:25:41 13° WNW 21:27:56 10° WSW visible
12 Mar 8.6 06:58:47 10° ESE 07:01:57 17° E 07:05:21 10° NE visible
12 Mar 8.0 20:48:14 10° NNW 20:52:26 24° W 20:56:28 10° SW visible
13 Mar 6.9 20:14:08 10° NNW 20:19:04 43° W 20:23:57 10° SSW visible
14 Mar 5.7 19:40:23 10° N 19:45:37 81° W 19:50:50 10° S visible
15 Mar 8.6 20:49:00 10° NW 20:52:23 17° W 20:55:31 10° WSW visible
